Location: Kvarnån
(66.4000°N, 22.2667°E)
Time: 21:30:06
(UTC+00:00)

CZ-4 R/B - Pass Details

Date: 15 October 2024
Orbit: 508 x 562 km, 97.6° (Epoch: 05 November)

Event Time Altitude Azimuth Distance (km) Brightness Sun altitude
Exits shadow 18:03:30 - 183° (S) 2,105 4.1 -18.6°
Reaches altitude 10° 18:04:06 10° 186° (S) 1,868 3.9 -18.7°
Maximum altitude 18:08:00 45° 260° (W) 778 2.4 -19.1°
Drops below altitude 10° 18:11:55 10° 334° (NNW) 1,867 4.7 -19.4°
Sets 18:14:07 0° 341° (NNW) 2,760 5.5 -19.6°
